Location: 22
(39.7117°N, 89.5929°W)
Time: 09:10:32
(UTC-05:00)

S-56A Canister/Altair - Pass Details

Date: 13 February 2023
Orbit: 638 x 2493 km, 38.9° (Epoch: 25 March)

Event Time Altitude Azimuth Distance (km) Brightness Sun altitude
Rises 08:12:46 0° 248° (WSW) 3,489 10.5 13.2°
Reaches altitude 10° 08:15:36 10° 245° (WSW) 2,355 9.7 13.6°
Maximum altitude 08:20:44 61° 165° (SSE) 765 8.1 14.5°
Drops below altitude 10° 08:25:07 10° 86° (E) 2,021 10.7 15.2°
Sets 08:27:23 0° 82° (E) 2,946 11.3 15.6°
